RH
15 14 14 15 13 13 13 14 17 15 15 23 29 27 22 19 21 20 13 12 22 27 27 31 33 34 45 52 51 51 47 44 49 49 45 41 35 32 35 37 34 32 32 30 28 29 28 26 26 25 25 36 57 76 82 77 66 49 34 33 40 41 35 35 34 28 28 31 27 26 29 29 30 32 31 33 40 40 40 45 47 51 53 47 54 67 50
15 14 15 14 13 14 16 15 16 15 15 20 27 30 26 22 21 20 15 13 18 24 24 28 34 38 44 46 46 49 47 43 44 40 36 37 31 27 33 37 36 36 38 34 30 32 31 26 30 28 20 43 80 88 83 78 58 44 47 45 43 41 32 30 35 32 32 34 31 31 33 30 29 31 33 38 45 50 51 49 50 54 50 46 59 68 47
15 14 15 13 14 16 16 16 15 14 16 17 21 30 29 21 19 21 20 19 22 29 32 30 32 36 37 36 37 39 41 48 50 42 40 42 33 27 34 37 35 39 42 38 36 37 31 26 33 32 23 46 83 89 87 84 62 58 78 75 55 42 30 27 34 38 39 39 37 34 33 30 27 30 41 48 53 59 55 46 50 56 48 42 53 58 41
15 15 15 14 15 16 15 16 15 13 17 17 16 24 26 20 19 19 18 22 25 31 35 31 29 33 30 27 31 31 30 44 56 50 44 46 41 33 36 39 36 36 40 38 34 36 36 31 32 32 27 39 65 82 93 90 75 79 98 90 60 40 33 29 29 32 36 37 35 31 29 32 31 35 50 60 60 59 52 46 49 48 46 48 47 45 43
15 15 16 16 17 17 16 15 15 15 18 16 15 25 30 24 21 23 23 24 22 22 27 27 27 30 26 21 29 32 29 37 48 47 44 47 47 38 35 38 35 31 35 33 29 35 38 33 35 39 37 35 47 73 89 87 85 92 93 82 60 39 36 41 39 37 34 31 31 30 29 33 33 35 48 59 65 66 60 56 48 39 48 56 41 35 45
15 15 17 18 17 17 16 14 15 16 17 18 22 32 36 29 26 35 40 34 24 22 28 31 33 33 28 26 30 32 31 35 38 39 43 47 46 37 34 37 34 29 31 29 28 35 35 35 44 50 48 41 40 55 70 74 85 87 67 58 57 41 35 51 58 49 37 31 32 31 30 31 31 33 38 44 57 70 71 64 51 42 52 53 37 35 45
16 16 18 18 16 17 17 15 15 15 15 19 25 30 36 33 28 36 46 40 32 33 37 38 38 33 27 26 29 29 28 31 34 36 37 38 39 36 29 28 29 29 32 30 27 30 30 33 47 56 58 53 43 42 51 59 69 65 45 46 58 46 40 58 66 55 43 36 32 31 31 31 32 34 35 34 41 56 66 63 50 45 48 44 36 41 44
16 17 16 17 18 17 17 16 15 15 15 19 28 32 35 34 28 30 36 33 31 33 33 33 33 29 25 24 28 30 28 29 34 37 33 30 32 35 29 26 32 35 35 33 28 30 30 27 36 51 55 51 44 38 38 46 56 53 44 52 59 47 46 59 59 52 45 35 29 31 31 30 33 33 31 31 33 39 51 55 50 50 52 44 40 49 50
15 16 16 17 18 16 17 17 15 16 17 22 31 32 29 29 28 29 28 25 27 28 23 23 23 17 17 22 28 30 26 26 32 35 38 36 33 34 30 28 39 46 43 38 32 34 38 33 34 43 40 36 38 35 30 40 55 58 56 60 56 43 42 47 47 47 42 31 29 31 27 30 42 46 39 34 34 37 43 46 45 49 53 51 52 58 53
15 16 15 16 16 15 15 15 14 17 18 21 30 31 28 29 27 28 29 24 24 25 20 19 21 20 24 32 37 37 30 28 30 29 35 46 47 46 40 32 34 39 41 45 45 44 46 42 40 40 36 32 33 31 32 38 47 57 63 63 59 52 43 38 42 45 39 30 29 29 30 38 47 47 40 32 31 33 35 35 35 35 40 48 53 51 40
15 15 13 13 13 12 13 13 14 18 19 21 30 29 25 27 28 29 29 22 23 29 21 15 19 29 41 45 44 42 33 30 34 29 29 46 57 55 48 37 28 30 42 55 56 53 51 47 43 42 40 39 36 35 42 43 42 50 55 55 63 65 52 38 38 42 40 36 31 31 41 46 38 29 28 27 28 29 30 31 29 28 30 35 38 36 31
11 11 10 11 11 10 12 13 14 19 21 21 26 23 16 17 25 28 22 17 27 31 21 25 42 47 48 46 42 42 38 38 47 43 34 47 60 54 45 37 29 36 55 60 52 52 54 52 51 50 49 53 52 49 52 51 48 48 45 46 58 61 50 40 40 43 42 37 38 47 53 43 31 26 24 25 27 27 29 31 29 28 31 31 33 35 33
8 9 8 9 10 10 11 12 13 19 21 18 21 24 18 13 23 34 26 15 23 26 20 43 73 67 48 44 45 48 50 50 53 50 44 50 55 52 52 51 47 52 60 55 49 50 47 42 44 47 47 51 54 58 62 60 56 54 49 47 50 49 46 41 39 41 42 39 44 54 48 32 27 30 28 28 32 32 36 43 38 31 32 33 35 36 34
7 7 7 7 9 9 10 11 12 15 18 17 18 22 20 14 21 37 35 18 19 29 28 36 55 54 44 45 46 45 47 44 38 41 49 52 54 61 71 74 72 69 60 49 45 41 32 28 31 33 36 38 41 49 58 58 57 59 57 51 45 42 41 40 39 40 42 44 44 42 38 33 32 32 29 30 32 31 37 50 46 32 30 34 34 35 36
7 7 7 7 8 9 9 11 12 13 17 18 19 20 20 16 14 26 35 26 17 26 31 29 34 39 41 43 41 35 34 32 29 37 50 56 62 74 82 81 80 73 57 44 37 31 26 29 29 26 28 31 31 34 37 42 51 56 53 49 47 43 38 38 42 42 39 42 44 44 48 45 34 28 28 28 31 29 33 50 53 37 30 34 34 36 40
8 8 8 8 8 9 10 10 11 14 16 18 21 22 18 16 12 16 30 31 16 20 40 51 49 42 38 40 40 33 28 26 26 30 36 46 63 76 78 77 75 66 51 37 30 28 28 28 27 27 27 26 27 28 27 28 38 47 48 46 46 45 40 39 46 46 40 42 45 47 52 45 30 27 30 31 34 33 37 54 57 39 29 33 36 39 42
8 8 8 8 9 9 10 12 13 15 17 18 21 19 15 17 15 12 25 35 26 31 61 79 65 37 24 29 31 26 25 26 25 24 26 37 57 70 74 72 66 61 54 38 27 28 29 27 27 28 26 25 26 28 27 24 29 39 44 43 46 47 43 43 49 48 42 43 44 41 41 36 28 27 30 31 32 36 46 59 54 36 32 36 37 39 41
8 8 7 8 9 9 11 13 14 17 19 20 20 18 16 17 13 12 29 38 27 35 74 99 80 48 43 52 42 28 30 31 22 20 27 35 45 57 66 63 57 59 59 42 29 28 28 27 28 27 26 28 28 27 27 26 27 32 32 33 45 54 47 42 46 46 42 45 49 44 37 31 27 29 31 32 36 43 51 51 42 33 33 35 36 39 39
8 8 8 8 8 9 10 12 15 19 19 20 21 20 19 19 14 16 29 36 29 41 80 106 94 77 84 86 59 37 39 40 30 25 26 30 39 50 55 51 46 48 46 36 29 29 27 27 29 28 28 29 28 27 27 27 27 27 27 30 41 49 47 43 45 46 41 40 46 48 41 31 28 31 34 36 42 46 43 35 30 31 31 31 35 38 37
9 8 8 8 8 9 10 11 15 17 17 18 20 20 20 20 16 16 27 39 44 53 76 98 96 89 93 88 67 50 42 35 30 25 20 29 45 46 39 37 39 37 34 33 32 29 27 28 28 28 29 28 26 26 29 30 25 22 29 37 38 38 41 41 40 40 38 39 47 52 45 33 30 35 38 41 40 35 30 28 28 30 31 31 33 35 37
9 9 8 8 8 9 9 11 14 16 19 21 18 18 21 21 19 18 21 30 41 48 65 90 99 94 94 95 93 90 76 61 56 43 26 31 45 41 27 28 34 32 28 31 33 29 28 30 29 30 31 26 25 28 30 32 30 26 31 38 37 36 36 33 32 34 37 41 45 42 34 30 29 30 31 33 31 26 27 31 30 29 31 32 33 35 37
9 9 9 8 8 9 9 11 13 14 18 20 16 18 22 22 23 22 16 28 55 69 77 91 97 96 97 98 97 100 96 92 93 82 56 38 37 38 31 25 29 33 28 25 28 29 29 31 30 31 31 27 27 30 29 28 33 37 37 35 34 35 32 28 31 34 33 34 34 29 27 28 28 25 24 24 24 25 30 34 31 29 30 31 34 37 36
10 9 10 9 9 9 9 10 12 13 14 16 15 16 20 21 23 22 19 36 66 80 85 93 92 88 92 95 94 95 93 91 96 97 83 58 37 32 33 30 35 40 34 30 33 31 28 30 30 28 30 29 28 30 32 32 34 36 36 31 28 27 26 27 31 32 29 28 27 26 27 27 26 26 25 24 25 26 30 34 32 29 30 32 34 37 37
11 10 11 10 9 10 10 10 11 12 12 14 14 15 17 19 20 20 24 36 47 53 63 73 72 72 81 88 92 95 93 90 92 92 88 77 54 35 34 44 50 45 39 42 43 33 27 32 33 31 31 30 27 28 31 34 33 31 32 32 27 25 26 28 30 31 32 30 24 22 24 24 23 24 25 27 29 30 31 32 31 30 32 34 35 38 38
11 10 11 11 11 11 11 11 12 12 12 14 14 14 15 17 16 18 25 32 32 33 39 46 57 72 83 86 91 96 90 88 93 92 90 93 81 59 52 62 63 53 46 45 40 32 30 32 33 34 34 30 27 27 28 29 29 28 30 31 28 27 29 30 29 28 29 28 23 21 23 23 23 24 25 27 29 30 31 31 30 31 34 35 37 40 39
12 11 11 11 11 11 12 12 13 14 13 14 14 13 15 17 16 16 23 28 28 26 28 38 55 72 78 80 87 92 90 92 99 98 95 96 89 78 74 74 66 55 48 42 35 34 34 31 30 33 33 30 29 29 29 28 27 28 31 30 29 31 32 30 27 28 29 27 24 23 24 25 24 24 25 26 26 29 31 31 31 34 36 39 41 41 39
13 13 13 14 13 13 13 13 13 14 15 16 16 15 15 17 16 15 19 25 26 24 26 36 50 63 74 81 81 79 86 96 99 98 98 97 93 90 87 77 59 46 41 39 38 37 34 32 35 35 35 37 38 36 36 36 36 38 38 32 30 35 34 29 31 36 37 32 26 23 25 25 22 21 25 27 26 27 30 31 33 36 38 40 42 41 40
14 14 15 16 16 16 16 15 14 14 15 15 15 14 13 14 15 15 16 18 22 27 32 38 45 53 63 71 68 68 76 86 92 98 101 100 99 99 91 74 56 44 40 40 40 39 36 37 38 37 37 41 41 39 41 45 47 47 42 32 28 30 28 27 32 36 32 27 24 23 23 22 21 23 27 27 27 28 30 31 34 36 37 39 40 41 40
15 14 14 15 15 16 18 17 16 15 15 15 15 15 15 15 14 15 16 14 19 29 37 39 41 46 54 59 63 67 70 71 80 95 100 98 99 97 86 71 56 45 42 43 41 39 38 37 36 36 39 41 38 37 39 42 45 42 34 27 28 27 24 24 27 26 23 22 24 26 24 21 22 26 27 26 27 28 29 29 31 34 36 38 40 40 39
14 13 13 13 12 13 14 15 16 16 15 16 16 17 20 19 15 16 17 15 15 24 32 33 34 39 49 56 61 67 71 69 75 87 92 89 87 83 77 68 57 48 46 46 43 41 40 38 39 41 43 42 40 39 39 39 39 34 25 23 27 27 25 26 26 23 23 24 24 26 26 24 25 26 27 27 28 30 30 30 30 32 35 38 40 39 38
13 13 13 12 11 11 12 12 14 15 14 16 20 22 24 23 18 16 17 15 15 21 27 32 34 36 42 51 56 61 67 70 74 79 80 75 70 70 71 66 57 52 50 46 45 46 44 42 44 46 47 48 47 44 42 42 42 37 27 23 25 26 26 27 28 27 28 27 26 26 27 26 27 29 29 28 30 32 33 32 33 36 39 40 40 39 38
12 12 13 12 11 12 12 11 13 14 13 16 19 21 22 22 19 17 15 14 16 21 25 29 31 30 32 41 50 54 58 61 60 59 60 59 56 58 62 59 54 55 56 51 50 51 47 44 47 50 50 52 52 49 48 49 47 40 30 24 24 24 24 26 26 26 27 26 28 31 31 28 26 27 27 27 29 32 34 34 35 40 43 43 43 42 40
12 12 12 12 12 13 13 13 14 14 13 15 17 17 17 17 16 16 16 15 16 20 25 28 29 28 28 33 41 48 53 53 46 40 43 48 47 44 47 48 47 51 58 56 49 46 46 47 50 52 51 50 50 53 55 52 45 36 30 27 26 25 23 23 23 24 24 23 26 31 31 27 25 27 28 28 30 34 37 37 38 43 47 48 48 47 45
13 13 12 12 13 13 13 13 13 12 13 14 16 16 16 16 16 16 16 15 17 21 26 29 28 27 28 30 35 44 48 45 38 35 38 45 46 40 39 41 40 44 52 51 43 41 45 48 49 51 51 50 53 59 59 47 35 31 31 30 27 25 24 24 24 25 26 25 25 28 27 25 27 31 32 32 34 37 40 42 44 48 52 54 53 51 49
13 13 12 13 13 14 14 14 12 12 13 14 15 17 15 15 17 17 15 17 20 22 26 29 27 25 27 28 30 39 46 44 38 36 38 43 45 40 37 40 42 43 45 43 41 42 44 44 47 50 50 51 58 63 55 41 31 30 29 26 24 24 25 26 25 24 25 26 28 29 29 29 32 35 35 36 37 40 43 46 48 52 56 57 55 52 51
13 14 14 13 13 13 14 13 12 14 16 15 14 15 14 14 16 16 15 18 20 20 24 29 27 25 28 28 28 36 45 43 38 37 40 43 43 40 39 40 42 46 48 48 48 46 42 41 46 49 48 52 57 52 40 32 30 28 26 23 23 23 23 23 23 23 23 27 31 32 33 36 39 40 40 39 39 42 47 48 49 55 60 60 56 54 54
12 13 13 13 14 16 16 14 13 15 17 16 13 14 14 14 14 15 15 18 20 22 27 29 27 28 31 29 29 38 45 41 35 35 39 42 43 43 42 41 44 52 55 50 46 45 42 42 47 50 48 47 44 35 28 28 28 27 26 24 23 23 22 22 23 24 26 30 32 32 34 39 43 45 45 44 43 46 50 51 52 56 62 64 61 59 58
13 14 12 12 17 21 20 16 13 14 15 15 14 14 15 16 17 19 22 23 22 25 29 30 30 36 38 33 34 42 44 39 35 34 37 43 47 46 42 41 44 50 49 41 37 41 44 45 49 52 50 44 36 29 29 30 27 25 26 25 23 24 23 22 23 26 30 32 31 28 29 34 38 42 46 48 48 47 48 49 50 52 59 64 64 62 62
13 13 12 12 17 20 18 14 14 15 15 14 14 16 19 22 23 24 27 28 26 27 31 31 33 37 37 32 35 45 47 40 36 35 36 43 48 44 38 38 42 44 43 39 37 40 43 43 46 49 50 44 35 28 25 26 25 24 24 23 23 24 24 24 25 26 28 29 28 26 26 28 30 33 36 40 44 46 47 49 50 52 58 63 65 67 70
12 12 13 15 17 16 14 14 14 14 14 17 20 23 26 28 28 28 29 28 26 27 33 38 41 45 45 36 33 43 49 45 41 40 40 41 44 44 40 38 40 42 41 39 38 39 40 39 39 42 42 37 28 21 20 22 22 21 21 21 23 23 24 26 27 27 28 28 28 28 30 34 37 37 35 36 38 41 45 49 51 54 58 61 64 69 72
11 13 14 16 15 13 14 16 14 14 18 23 26 28 30 31 32 34 32 29 27 31 39 44 42 43 47 45 38 40 48 51 48 48 45 42 46 51 48 39 36 39 39 38 38 39 38 38 40 40 37 29 22 20 21 22 22 21 22 23 24 26 27 29 30 31 32 33 34 33 35 41 47 48 45 45 44 44 46 51 53 55 58 60 62 65 64
13 14 14 15 15 14 16 18 18 19 24 28 28 30 34 33 32 32 31 29 29 33 37 41 40 40 46 51 46 43 53 60 54 47 45 45 47 49 45 38 36 39 39 40 41 40 38 41 44 42 34 26 22 22 22 22 23 25 25 26 28 29 30 32 35 35 35 38 42 44 45 49 55 56 53 55 57 57 57 59 59 59 58 59 59 59 59
13 13 12 13 16 17 20 25 26 26 30 34 33 31 32 32 33 33 31 32 37 37 34 39 47 51 52 52 48 50 64 73 61 45 42 46 44 40 38 39 40 40 40 40 42 41 41 45 46 39 29 23 22 23 24 25 27 28 29 29 31 32 33 35 39 40 40 43 48 51 53 57 60 59 56 58 63 65 64 61 59 59 59 59 60 60 60
13 15 18 21 25 25 24 26 29 27 27 31 33 30 29 31 34 34 31 30 34 36 35 37 41 41 42 47 50 54 62 67 60 49 45 44 40 38 40 40 39 39 40 40 40 41 44 46 43 34 27 24 24 25 26 28 30 32 33 33 33 34 36 38 40 43 45 47 49 52 56 59 59 59 59 59 62 66 67 64 61 60 61 63 64 64 63
16 25 31 30 29 29 25 26 30 28 25 28 33 33 31 29 27 30 37 40 37 36 40 40 36 33 37 46 52 51 49 49 50 49 46 42 39 39 40 38 37 39 40 40 40 43 47 45 37 28 25 25 26 27 30 32 33 35 37 37 37 37 38 41 44 48 51 51 52 55 58 59 59 60 61 59 58 61 65 67 65 64 65 67 68 68 67
21 32 36 28 26 30 28 26 29 30 28 32 36 33 30 31 30 37 52 56 44 38 43 44 37 34 38 42 45 47 45 43 42 42 42 41 40 40 39 38 38 40 41 43 47 50 46 37 27 23 25 29 31 33 36 36 36 37 39 40 40 40 41 45 48 51 51 51 54 57 59 58 58 60 61 60 59 60 62 64 65 65 67 70 71 69 68
24 33 32 25 27 33 33 31 34 34 32 35 39 41 46 51 48 49 61 63 49 43 50 50 42 40 43 43 43 45 45 42 41 41 41 42 40 37 37 39 40 40 41 45 48 45 38 29 24 26 31 36 38 40 41 39 38 39 41 42 42 44 46 49 51 52 52 54 59 62 61 60 60 62 64 65 65 63 62 62 63 65 68 70 70 67 67
26 30 27 24 29 34 33 33 37 37 37 45 54 61 67 64 51 49 63 68 55 46 48 45 38 38 42 41 40 42 42 42 43 42 40 42 42 40 40 43 42 40 40 41 39 33 28 26 29 36 42 44 45 46 44 41 41 42 45 47 49 50 50 52 54 55 55 59 65 67 65 64 64 66 68 70 70 66 63 63 64 65 69 72 73 71 70
25 27 27 28 32 35 36 37 35 33 40 54 62 65 65 57 46 50 66 70 58 52 54 47 39 38 40 39 40 42 41 43 44 42 41 45 46 42 41 45 46 42 39 38 34 30 27 29 37 46 52 54 53 50 44 41 43 48 52 54 55 54 54 56 58 57 58 61 66 67 67 68 69 69 70 72 71 67 63 63 65 67 69 72 75 75 73
26 28 30 31 31 32 36 38 34 31 36 45 48 49 53 51 47 53 65 65 56 53 53 47 39 39 40 41 43 43 40 40 43 44 44 45 44 40 41 46 47 41 35 32 31 31 32 34 40 47 53 56 54 50 45 47 54 60 61 60 59 59 59 59 59 60 61 63 65 66 68 70 70 70 70 70 69 68 68 69 69 69 70 72 75 76 76
30 31 33 34 35 35 35 35 33 32 34 38 39 41 45 45 44 51 62 62 52 44 41 38 38 40 41 41 43 44 41 40 43 44 43 42 41 41 44 44 39 33 31 31 33 35 36 38 41 47 52 54 52 51 52 57 62 64 63 62 62 63 63 62 62 63 64 64 65 67 69 69 68 68 68 69 70 74 76 74 69 68 70 73 75 76 77
34 34 34 37 41 42 39 35 34 35 37 39 42 43 43 43 48 57 62 56 45 38 37 37 38 40 42 43 43 43 41 41 42 43 43 41 40 41 43 39 34 31 33 36 38 39 39 41 46 52 55 56 55 56 60 63 62 60 60 61 62 64 65 66 65 65 66 67 67 67 67 67 67 67 69 72 74 77 78 74 68 66 68 71 73 74 75
Wind_Speed
5 5 4 3 3 2 3 4 5 6 7 6 3 2 1 2 1 4 9 2 5 1 2 2 2 3 2 1 2 2 0 2 2 1 2 1 1 1 1 1 1 1 1 0 1 1 2 1 0 0 1 2 3 2 1 2 2 2 1 1 1 1 2 4 6 3 4 6 4 3 3 2 1 2 3 3 2 1 3 4 5 5 6 7 7 9 8
5 4 4 3 3 3 4 4 4 5 6 4 1 1 0 1 1 3 7 2 3 2 1 3 3 4 3 2 3 1 1 1 1 2 2 1 1 1 2 1 1 2 1 0 1 0 1 1 0 0 1 1 2 1 1 2 2 1 1 2 1 1 1 3 6 4 0 1 1 2 1 2 3 3 4 4 4 3 3 2 1 3 6 7 7 9 9
5 4 4 4 5 5 4 5 5 5 5 3 1 1 1 0 1 1 4 5 2 1 1 2 5 5 4 4 4 2 2 1 1 1 1 1 2 0 2 1 1 2 1 1 1 1 1 1 1 1 0 2 2 1 2 3 2 2 4 4 2 2 3 3 4 6 6 5 4 4 3 4 3 3 6 6 6 7 3 3 3 4 6 7 9 12 13
5 5 5 6 6 5 4 6 6 4 3 1 1 2 0 1 1 1 1 4 4 2 1 1 5 6 5 4 3 2 3 2 0 1 0 1 0 0 2 1 1 2 2 3 3 3 2 0 1 1 2 2 2 3 4 3 1 2 3 3 2 2 3 4 4 4 6 8 9 9 8 8 8 5 5 7 6 7 4 3 5 7 8 9 12 14 19
6 7 7 7 5 4 5 6 4 2 1 0 2 3 1 2 1 1 0 1 2 3 2 2 4 4 3 3 4 4 4 4 3 1 1 1 1 0 2 2 3 3 2 3 3 3 3 2 0 1 1 2 3 3 4 3 3 2 1 1 1 3 4 3 3 7 10 11 14 14 11 10 12 11 6 6 8 8 6 7 9 9 8 10 12 14 19
8 8 8 6 4 4 5 4 2 1 1 1 0 1 2 1 0 1 1 1 1 2 1 2 3 3 1 1 3 5 5 4 3 2 1 0 2 2 1 3 5 4 2 2 2 3 4 4 2 1 1 1 3 4 3 3 6 5 3 2 1 4 3 1 0 8 12 14 16 15 12 11 11 12 11 8 8 11 11 12 13 9 8 13 17 20 22
8 9 7 6 5 5 6 5 3 3 3 1 1 1 1 1 2 2 1 1 2 2 1 2 4 4 3 1 3 5 7 6 2 1 2 2 3 2 2 4 6 5 4 3 2 3 2 2 2 2 2 2 2 3 2 3 6 5 3 2 1 3 2 2 1 8 13 14 13 11 10 11 11 12 13 13 11 12 13 14 14 13 16 19 22 25 24
9 8 8 7 7 7 8 7 6 5 4 2 2 0 0 0 1 2 1 2 3 2 1 1 2 2 1 2 3 4 6 6 3 1 2 2 4 4 3 3 4 4 4 5 4 2 2 2 1 3 3 2 3 3 1 3 5 4 2 2 1 2 1 3 0 7 11 8 6 6 8 10 12 13 13 13 13 13 13 13 13 13 17 19 20 22 19
9 9 9 9 9 10 10 9 8 6 5 4 2 1 1 1 1 2 2 2 2 0 1 0 1 2 2 2 3 3 6 7 5 3 0 1 2 4 3 3 5 2 3 7 5 2 3 2 1 2 2 1 1 2 0 2 5 4 2 2 2 2 1 0 1 6 7 2 4 6 9 9 10 13 13 13 12 10 10 10 10 11 13 16 16 14 12
9 10 11 12 12 12 11 10 8 7 6 5 2 1 3 2 1 1 1 1 1 1 1 1 2 1 1 1 3 2 2 5 5 2 2 1 1 1 1 2 3 2 4 5 2 4 4 3 3 2 0 1 1 0 1 1 2 4 4 2 1 1 3 2 1 5 5 1 3 10 10 6 5 5 8 12 13 11 11 11 12 14 13 12 11 11 12
12 12 12 12 12 11 10 9 8 8 9 7 3 2 5 4 1 0 1 0 1 0 1 2 2 0 1 2 2 1 3 5 3 1 1 3 2 2 1 2 2 2 1 1 2 5 6 5 4 2 2 1 1 0 0 1 1 2 4 2 1 1 3 3 1 3 6 6 10 10 6 4 2 2 4 8 10 12 13 13 14 14 12 12 13 15 16
11 11 10 10 9 9 8 8 8 9 9 9 6 4 6 6 2 1 2 1 1 1 1 1 0 1 1 2 2 1 3 4 2 2 2 3 3 1 0 1 1 1 2 3 3 5 5 5 4 4 3 2 1 1 3 4 3 2 2 2 3 3 2 2 0 2 6 7 8 7 4 1 2 3 3 4 6 9 13 17 18 17 17 18 19 19 18
7 7 7 7 7 7 7 7 8 9 9 9 8 7 7 7 3 0 2 2 1 2 2 0 1 1 1 2 3 3 4 4 3 2 3 3 3 2 2 1 1 2 4 5 4 3 2 2 2 2 3 3 2 3 5 6 4 4 3 3 3 3 2 2 2 3 4 5 4 4 7 5 2 4 2 2 3 7 10 15 16 16 17 17 16 16 15
2 3 4 5 5 5 6 6 7 9 9 9 9 9 8 9 5 1 1 2 0 1 1 0 2 3 3 4 6 5 4 4 2 1 3 3 3 3 3 3 2 2 3 4 3 2 2 1 2 2 3 3 3 3 5 5 3 3 4 4 3 3 2 1 2 3 2 5 5 6 11 10 2 3 4 5 3 3 4 9 11 10 11 12 12 13 13
3 2 1 1 2 3 4 5 6 7 8 9 10 10 9 10 8 1 1 1 0 2 2 1 2 6 7 5 5 5 4 3 2 2 2 2 3 4 4 3 2 0 1 1 2 2 1 2 3 3 2 2 2 0 3 4 2 1 1 2 2 3 3 2 2 2 1 4 6 5 8 7 0 3 5 6 3 3 2 5 10 7 7 10 10 11 11
5 4 3 2 1 1 2 3 4 6 6 7 9 9 8 10 9 3 0 0 0 1 1 2 2 5 7 3 1 1 2 3 3 3 2 3 3 4 3 2 1 1 1 1 1 1 1 2 3 3 2 1 1 1 1 3 2 3 2 1 2 3 3 2 3 4 3 4 5 4 5 5 1 5 8 7 6 5 3 4 5 3 7 9 9 10 10
5 4 3 3 2 1 1 2 3 4 4 4 6 7 7 8 8 4 1 1 0 0 1 3 2 3 5 3 1 1 1 3 2 1 1 3 4 5 4 2 1 2 2 2 2 2 3 3 2 4 3 1 0 3 1 1 3 2 3 2 3 3 3 4 5 6 4 4 5 4 6 6 1 9 9 7 8 7 2 6 4 3 7 8 8 8 8
6 5 4 3 2 1 1 2 3 3 4 4 4 5 5 6 8 6 2 1 1 2 2 3 2 1 2 0 1 2 1 2 1 1 1 2 3 5 5 3 2 2 2 2 1 2 3 3 2 4 3 1 1 2 1 1 3 1 3 4 3 3 3 4 5 6 5 6 5 5 7 5 3 10 11 10 8 4 4 6 2 3 5 6 6 7 7
6 5 4 3 2 2 1 1 2 3 4 5 4 2 2 3 6 7 3 1 1 1 2 1 2 1 1 1 0 2 1 0 1 1 2 1 2 6 7 3 1 1 2 2 2 2 3 3 1 1 2 1 1 2 2 1 2 0 2 2 2 2 3 3 3 4 4 5 4 6 7 2 7 11 10 9 4 4 5 3 0 1 2 3 4 6 5
6 6 5 4 3 3 2 2 3 3 5 5 2 1 0 1 5 6 4 3 3 3 3 1 1 1 2 2 1 1 0 1 1 2 1 1 2 5 4 1 2 3 3 3 2 2 2 3 1 1 3 2 1 1 3 3 4 2 1 2 2 2 2 3 4 4 3 3 3 5 6 2 13 13 7 6 6 4 3 2 2 2 2 3 5 5 4
7 7 6 5 4 4 3 3 3 3 4 3 2 1 4 3 3 4 5 6 5 3 2 1 1 2 2 2 3 3 2 1 1 1 1 2 3 4 1 1 3 4 3 3 2 1 1 2 0 1 2 1 1 2 2 3 4 1 0 2 2 3 3 3 2 3 2 3 5 3 2 5 14 11 5 7 9 5 3 4 5 4 3 3 4 5 5
9 8 8 7 7 6 5 4 4 2 3 3 2 2 6 9 9 8 7 10 12 9 6 6 5 4 4 4 3 2 2 2 2 2 1 1 2 1 2 1 3 1 0 1 2 1 1 1 0 1 2 1 2 3 2 3 3 0 2 2 3 5 5 2 3 3 4 6 8 5 2 5 12 11 9 10 10 7 3 4 6 6 4 3 4 5 5
10 10 10 10 10 10 8 7 6 3 2 1 2 3 7 12 13 11 11 16 17 12 8 6 5 5 5 4 4 3 2 2 1 1 1 0 2 2 1 0 1 1 1 1 2 2 0 1 1 2 2 2 2 3 3 4 4 2 2 4 5 4 3 1 2 4 5 10 13 12 11 9 10 12 12 11 10 7 4 5 7 7 5 4 4 5 5
10 10 11 11 11 12 12 12 11 8 7 5 2 5 10 14 13 12 12 11 8 5 4 3 1 2 2 2 3 2 2 1 1 0 0 1 0 1 1 1 1 1 1 1 1 2 1 0 1 2 3 1 1 3 5 5 4 2 2 4 5 4 5 4 5 4 4 7 9 9 12 13 10 9 10 9 9 8 6 6 7 6 6 6 5 5 5
10 11 11 12 12 13 13 13 13 13 13 11 9 9 12 12 9 7 6 5 3 3 3 2 1 2 2 1 2 2 2 1 0 1 1 0 1 1 0 2 1 1 1 1 0 1 1 1 1 2 3 2 1 3 4 3 1 1 2 5 4 3 4 5 8 9 9 10 10 10 13 14 11 10 9 7 8 9 8 8 7 6 6 7 6 6 6
11 11 12 13 13 13 14 14 13 13 12 11 9 9 10 9 6 5 5 5 4 3 3 3 2 2 1 1 1 2 2 1 1 0 1 1 1 2 1 1 0 1 1 1 1 1 2 2 2 4 3 1 1 3 2 3 3 2 5 6 1 4 3 5 5 7 10 14 15 15 15 15 13 12 11 9 7 7 8 8 8 7 7 7 7 8 8
11 11 11 11 11 11 12 13 13 12 9 7 7 8 8 7 6 4 4 3 1 1 2 3 2 1 2 1 2 3 2 1 0 1 0 1 1 2 2 2 2 2 2 1 0 1 2 2 2 3 3 0 1 2 2 3 3 3 7 6 4 4 6 6 4 5 9 10 9 8 8 10 10 7 7 8 6 6 7 8 9 10 10 9 9 9 9
9 8 8 7 7 6 6 8 10 12 11 9 9 9 10 11 10 6 3 1 1 2 3 3 3 3 3 1 3 4 2 1 0 0 0 0 1 1 3 3 2 2 2 2 1 1 3 3 2 1 1 1 1 2 2 0 1 4 8 7 8 8 9 7 6 7 9 9 7 3 4 10 8 3 1 5 5 6 8 10 10 11 10 9 9 10 10
9 8 8 7 6 4 3 2 1 5 7 7 5 6 9 12 13 11 8 7 8 8 6 4 4 3 1 0 2 3 3 2 1 1 0 0 1 2 3 3 2 1 1 2 2 2 3 3 1 0 0 0 2 2 1 1 4 7 7 8 10 10 11 11 11 11 12 13 9 2 4 10 7 2 0 4 5 7 10 10 10 10 10 11 11 10 10
9 9 10 10 9 7 4 2 4 4 4 2 1 2 2 5 8 9 8 8 8 8 5 2 2 2 1 1 1 1 2 2 1 1 0 1 1 1 2 2 2 1 1 2 2 2 2 2 1 0 1 1 2 2 2 2 4 7 8 8 10 10 11 11 12 12 13 13 6 2 4 10 6 2 4 6 8 9 9 9 10 10 11 12 11 11 12
9 9 11 12 12 12 10 7 3 3 5 4 2 2 0 1 4 5 4 3 4 5 4 3 2 2 1 1 1 0 1 1 1 1 1 2 1 1 1 2 1 2 2 2 1 1 2 2 2 1 1 1 2 3 3 2 4 8 11 9 8 8 9 9 9 10 12 12 6 4 8 11 6 4 7 8 10 11 10 9 11 11 12 13 13 12 13
8 10 11 12 13 14 14 13 10 6 4 4 3 3 3 1 1 3 3 2 3 3 2 3 2 1 1 1 2 1 1 1 2 2 2 2 2 1 2 2 1 2 2 2 2 1 1 1 1 1 1 2 2 2 3 3 6 12 14 9 4 4 6 7 7 8 10 8 5 6 12 12 7 7 8 6 8 12 11 10 11 11 11 12 12 12 12
6 8 9 10 11 11 12 13 12 11 11 11 10 10 8 5 2 2 2 1 3 2 2 2 2 1 0 1 2 1 1 1 2 2 2 2 1 1 2 2 2 2 3 2 2 1 0 0 1 1 1 1 1 3 4 7 12 16 15 12 10 7 5 5 7 8 9 7 5 7 13 12 5 3 6 6 6 10 11 10 10 10 10 10 11 11 11
3 4 4 5 6 6 7 7 8 9 11 11 10 10 11 10 9 6 3 1 2 3 4 2 1 1 1 1 2 1 1 1 1 1 0 1 1 1 1 2 1 2 3 2 2 1 1 1 1 1 1 2 1 2 5 11 15 15 12 12 13 10 7 6 7 8 8 7 7 11 15 13 7 4 7 8 7 9 10 10 10 9 9 10 11 11 11
1 1 2 2 4 4 4 3 3 4 6 6 5 5 6 8 10 11 9 4 1 1 2 2 1 0 0 1 1 1 1 1 1 1 1 1 1 1 1 1 1 1 1 0 1 2 1 0 1 1 2 2 2 5 7 11 13 10 8 9 10 6 4 6 9 7 5 5 6 9 11 11 10 10 10 9 8 9 10 10 11 11 10 10 11 11 10
0 0 1 2 4 4 3 3 3 2 3 3 2 3 3 3 5 7 9 8 6 3 1 0 1 1 1 2 1 1 0 1 1 1 1 1 1 0 1 1 2 0 1 0 2 2 1 1 1 1 1 2 5 8 8 8 10 10 9 11 11 8 7 10 12 9 6 6 8 8 8 9 11 11 10 10 9 9 10 11 12 12 11 12 11 10 9
1 1 2 3 3 2 2 3 3 3 2 2 1 2 3 2 2 2 4 6 8 7 3 0 0 1 1 2 1 1 1 1 0 1 1 1 0 0 1 1 1 0 0 2 2 1 1 1 1 3 4 5 7 8 7 7 9 11 11 13 13 10 10 12 11 9 9 11 11 9 8 9 10 9 9 11 10 9 11 12 11 11 12 12 10 9 10
2 2 2 2 1 0 1 2 2 1 2 3 2 2 3 3 2 1 2 3 5 5 3 1 1 1 1 2 0 1 1 1 1 0 0 0 0 0 1 1 1 1 2 2 1 1 1 2 2 4 6 7 8 10 10 9 8 7 8 10 10 8 9 11 10 8 9 11 11 11 12 12 11 9 8 10 10 10 11 10 9 9 8 7 8 10 10
2 2 2 1 1 1 1 2 2 2 3 4 3 1 2 3 1 1 1 2 1 2 2 1 1 1 2 2 0 2 2 1 2 1 0 0 0 1 1 1 1 1 3 2 1 1 2 2 2 3 5 6 6 7 6 5 4 5 6 6 8 8 8 9 9 9 10 11 13 16 18 18 18 15 12 9 8 8 8 7 7 8 7 8 11 12 11
2 1 1 1 1 1 0 2 3 2 2 3 2 1 1 2 1 1 1 1 0 0 1 1 1 1 1 2 1 1 2 1 2 2 1 0 0 1 1 1 1 1 3 2 1 1 2 2 1 2 4 5 4 1 2 2 4 7 8 7 9 11 10 8 9 11 12 13 16 18 20 19 19 18 17 15 13 11 8 6 6 9 11 14 16 17 18
2 2 1 1 1 1 1 3 3 2 0 1 1 1 1 1 1 0 1 1 1 0 1 0 1 1 1 1 2 1 2 3 2 1 1 0 1 0 2 1 1 1 3 2 1 0 2 2 2 4 5 4 2 4 7 8 10 12 12 13 16 16 12 9 11 14 14 11 11 14 19 21 19 18 17 17 16 14 12 9 9 12 17 20 23 25 29
2 2 1 1 1 0 1 2 3 2 1 1 1 1 1 0 0 1 1 1 1 1 1 1 1 1 1 1 1 1 2 2 1 1 1 1 1 1 1 1 1 2 2 0 1 0 2 2 4 5 4 2 5 8 10 11 12 13 14 15 17 18 14 8 8 15 18 15 11 13 19 22 21 21 21 21 19 19 19 17 16 18 21 24 28 31 32
3 3 2 0 0 1 1 1 1 1 1 1 1 1 2 1 1 0 1 0 0 0 0 1 1 1 1 1 1 1 2 1 1 1 1 1 1 1 1 1 1 1 1 1 0 2 2 3 5 4 3 5 8 11 12 13 13 14 14 16 19 22 21 15 12 17 21 21 19 20 21 22 23 25 27 26 24 24 26 27 26 24 24 24 26 29 31
3 2 1 0 0 1 1 1 0 1 0 0 0 0 2 2 0 0 1 1 1 1 0 1 1 1 0 1 1 1 1 1 0 0 0 1 1 0 1 1 1 0 1 1 2 2 3 4 6 5 4 6 9 12 14 15 14 14 15 16 19 22 23 21 20 19 20 21 22 22 21 22 24 25 27 27 25 24 27 30 30 27 25 25 25 27 30
2 1 2 2 2 1 1 1 1 0 0 0 1 2 1 2 1 1 1 2 1 1 1 1 0 1 1 1 0 0 1 1 0 1 0 1 1 1 1 1 1 1 1 2 2 3 3 4 4 4 7 11 13 14 15 15 14 15 15 16 17 18 19 20 19 16 15 17 21 21 20 20 21 21 23 27 28 26 26 28 27 26 24 24 24 25 28
1 1 2 1 1 2 0 0 1 1 0 0 0 0 1 2 2 1 1 1 1 0 1 1 1 1 0 0 1 1 1 0 1 0 0 1 2 1 0 1 1 1 1 2 3 4 4 3 5 8 11 14 15 15 14 14 14 14 15 16 17 18 20 20 18 17 17 20 22 22 20 21 21 20 22 26 28 27 26 27 28 26 24 23 23 26 28
1 1 1 1 1 2 0 0 1 1 0 0 1 1 1 2 2 0 0 1 1 1 1 1 0 0 0 1 0 0 1 0 1 1 1 1 2 1 1 0 2 2 2 3 4 4 4 6 9 11 12 14 15 14 14 15 15 15 16 17 18 20 20 20 19 19 21 24 23 21 20 22 23 23 22 23 25 27 27 27 28 28 26 26 28 29 28
0 0 1 0 1 1 1 0 1 1 0 0 1 1 1 1 2 0 1 0 1 0 1 0 0 0 1 1 0 0 0 0 1 0 0 0 2 1 1 1 2 2 2 3 4 5 7 9 11 12 12 13 14 14 14 14 16 17 18 18 19 20 21 20 19 21 24 24 21 19 20 23 25 24 23 21 23 28 30 28 27 28 29 28 28 28 26
2 1 1 0 1 1 1 0 2 1 0 1 0 0 1 1 1 1 2 1 0 0 1 1 1 1 0 1 1 0 0 1 1 0 0 1 2 1 1 2 3 2 2 2 3 5 8 10 11 13 13 13 13 13 14 15 16 17 18 18 20 21 21 20 22 26 28 25 22 22 25 25 24 24 22 20 20 26 31 29 27 27 29 29 28 29 29
2 1 1 0 0 0 0 0 1 2 1 0 0 0 0 1 1 1 3 2 1 0 1 1 1 0 0 1 1 1 1 1 1 0 1 2 2 1 1 2 3 3 4 5 6 8 9 10 11 12 13 14 14 14 15 15 15 16 19 23 25 24 24 25 27 28 29 28 27 27 27 26 24 23 23 22 24 29 33 32 28 29 30 30 29 31 32
2 1 1 1 1 1 1 1 2 3 3 3 2 1 0 1 1 1 3 3 1 1 2 1 1 1 0 1 1 1 0 1 1 1 2 2 1 1 2 3 4 6 8 9 9 9 10 10 11 12 13 14 14 14 15 18 20 22 25 27 28 27 27 28 28 28 29 31 31 29 28 28 29 29 29 30 30 28 26 27 30 32 30 29 29 31 33
1 1 0 1 1 1 1 1 1 2 2 2 1 1 0 1 2 2 4 4 2 1 1 1 1 1 0 1 0 0 0 0 1 2 2 2 2 3 3 4 7 9 10 10 10 10 9 10 11 12 12 14 15 18 22 25 27 27 29 29 28 27 28 28 28 29 30 30 31 32 32 33 34 33 30 27 24 18 14 18 28 32 29 27 28 30 33
Wind_Direction
223 236 259 279 283 252 232 256 279 308 331 339 319 242 239 292 171 15 1 73 171 298 77 106 30 73 99 42 79 56 40 130 119 193 195 221 263 192 145 45 33 50 25 28 190 230 254 239 290 205 134 68 55 60 10 319 270 256 273 104 115 230 263 277 281 267 114 98 94 91 73 69 146 175 191 190 180 255 283 300 319 307 281 289 294 274 272
228 243 266 268 245 229 246 278 302 327 342 350 301 236 34 7 126 17 7 57 185 291 69 137 107 105 133 126 105 70 357 90 128 212 190 208 259 183 119 83 76 83 50 260 180 201 255 223 127 45 198 110 81 51 282 280 283 301 358 20 27 262 254 287 306 312 56 102 110 133 124 276 247 166 147 156 155 171 229 244 261 268 262 279 296 276 268
233 250 258 238 227 234 267 304 316 323 333 338 281 221 142 197 199 124 31 44 79 312 328 133 131 137 139 123 132 156 107 75 326 289 120 347 303 278 99 80 95 104 113 188 150 165 273 264 90 63 98 130 137 192 236 264 292 41 25 1 322 283 290 295 323 339 335 322 316 320 319 296 284 146 148 165 167 169 204 269 257 261 273 277 276 271 279
241 246 235 221 226 252 296 319 312 308 331 0 121 83 102 249 266 183 90 48 64 77 354 86 128 144 151 135 151 183 140 130 177 334 128 161 305 40 101 108 147 139 178 216 198 190 196 6 326 237 189 141 127 159 192 239 289 60 34 347 298 272 268 259 268 286 293 295 294 302 310 297 287 269 189 175 169 177 204 262 259 278 298 281 261 266 287
240 231 221 220 237 279 317 323 308 277 337 89 109 60 10 261 293 30 179 71 81 89 75 85 113 137 173 155 149 161 146 138 150 257 309 149 206 340 100 159 200 170 177 224 218 190 181 174 211 258 208 112 114 154 181 209 210 168 130 212 249 275 262 242 253 254 259 274 281 287 294 282 277 282 258 185 162 171 191 222 246 278 301 279 269 282 293
232 220 216 227 252 288 307 310 305 264 279 281 134 37 4 307 66 47 331 297 94 90 78 90 97 99 95 98 142 155 156 158 171 177 102 167 236 230 159 204 219 200 189 225 217 194 202 202 183 172 215 151 148 170 189 185 179 178 176 168 206 291 280 127 211 266 268 272 272 273 274 268 267 274 270 244 196 181 194 223 240 252 257 261 280 295 293
221 216 221 241 260 277 288 281 269 280 286 247 222 320 21 55 96 85 318 346 63 33 19 95 116 105 90 131 173 177 176 172 156 124 144 186 215 232 243 212 201 196 198 225 234 216 222 235 209 160 164 188 190 196 200 171 175 192 194 155 165 280 270 94 342 284 283 275 265 259 257 261 265 265 266 265 243 212 213 233 242 244 248 258 276 287 286
217 223 235 252 262 270 282 276 261 271 272 224 222 287 98 225 126 123 137 99 79 44 35 132 146 124 123 198 172 192 197 179 148 152 194 189 168 191 240 196 158 168 194 216 243 272 314 300 245 175 168 194 220 224 220 140 164 201 204 145 184 259 7 69 22 287 290 274 240 239 249 259 269 271 267 264 258 242 235 242 247 248 252 260 274 283 283
226 240 250 261 266 270 278 274 261 260 247 208 205 220 184 21 61 150 147 108 92 39 108 164 240 171 203 206 151 192 208 177 154 148 179 325 164 184 206 154 131 131 212 226 250 334 10 5 80 168 191 218 199 214 303 120 160 183 185 173 204 226 280 17 280 298 299 209 189 267 282 273 269 271 264 248 242 240 232 231 234 238 253 270 278 278 279
247 257 263 266 269 270 271 266 254 242 219 201 210 197 171 125 85 204 290 71 157 246 132 195 257 199 155 99 132 183 183 152 156 159 152 140 78 354 271 151 157 199 212 223 274 34 55 62 59 66 253 16 51 63 24 67 173 173 165 182 258 257 287 308 326 302 296 240 295 305 307 295 266 251 238 226 224 232 238 239 240 241 251 272 276 268 280
261 264 266 266 267 265 262 255 240 224 212 211 232 208 188 186 130 160 268 217 150 271 241 206 218 179 78 101 125 151 145 151 165 312 163 151 95 7 308 166 212 255 182 164 52 65 79 84 79 72 59 71 124 100 125 206 229 166 166 178 147 159 274 296 329 283 290 312 314 301 290 292 321 101 169 206 222 238 247 254 258 256 256 260 264 272 284
264 263 262 261 259 255 252 246 231 220 217 221 239 251 224 211 176 159 252 273 105 179 244 240 237 22 60 127 116 104 140 145 107 27 74 117 101 51 2 172 246 281 121 132 127 117 109 99 103 106 93 105 133 162 217 211 198 182 186 181 154 163 230 260 195 260 281 308 316 302 294 323 112 137 177 207 235 249 257 265 264 259 259 259 263 271 278
263 260 255 251 252 249 243 240 229 221 225 230 238 256 242 213 193 318 275 275 186 175 197 45 53 0 294 145 109 87 96 92 68 48 57 83 123 129 68 25 22 106 141 153 146 155 168 143 147 152 137 154 177 197 214 210 192 187 195 190 184 192 233 265 259 244 269 308 321 298 305 310 157 168 196 188 232 250 265 275 262 245 249 256 257 264 271
276 262 250 242 244 240 232 235 230 224 229 234 237 252 246 215 201 355 310 259 316 133 166 20 142 171 176 140 121 110 105 99 96 82 46 52 107 105 62 29 35 101 163 168 163 215 249 237 242 230 174 183 216 209 193 191 182 187 194 194 200 213 226 275 270 231 259 305 286 266 288 292 232 170 194 185 197 221 257 286 277 252 244 245 249 262 271
50 46 31 236 232 237 233 234 230 225 233 240 240 247 240 215 210 265 322 262 316 156 194 288 146 153 149 142 141 133 130 146 152 119 85 63 73 71 53 31 34 139 215 219 206 225 265 284 275 261 218 214 263 263 168 169 149 120 171 182 181 211 244 296 293 247 221 296 295 289 289 289 230 138 164 152 118 94 136 277 284 266 222 216 233 257 270
55 55 53 60 86 212 230 228 230 231 236 238 234 232 227 214 213 230 45 89 294 194 185 2 47 137 134 129 177 170 156 168 161 146 157 148 116 96 76 54 47 212 227 237 234 235 237 247 265 277 273 266 329 301 212 181 162 120 109 143 167 205 260 272 266 266 249 272 293 291 279 291 30 129 145 132 111 117 149 265 282 208 179 199 223 248 268
64 64 62 61 76 113 151 189 207 211 211 215 217 215 212 209 208 205 157 89 12 119 45 345 318 163 135 119 163 198 172 150 157 218 209 146 130 123 115 107 147 215 256 246 210 223 237 236 252 266 264 124 149 286 290 225 229 173 133 153 171 193 229 213 226 252 243 238 265 267 264 281 116 133 141 128 124 140 197 301 311 165 186 205 219 249 277
65 62 61 56 65 109 134 162 166 172 180 181 183 193 208 218 212 200 171 98 134 129 78 0 330 165 138 107 147 140 121 132 166 244 111 118 136 146 150 156 161 189 250 255 216 231 242 232 242 269 276 109 124 293 313 212 266 237 153 168 175 185 208 210 234 258 240 226 252 268 269 276 123 129 135 133 139 168 275 312 342 157 199 205 210 255 285
62 58 58 53 58 70 86 164 169 180 180 167 167 200 243 224 197 180 155 69 12 147 126 22 344 39 22 315 98 99 61 244 236 212 165 160 136 133 142 168 223 182 197 217 229 244 248 235 211 263 267 197 165 283 286 233 253 244 154 198 202 181 189 204 230 249 238 230 249 271 276 252 121 125 134 144 173 269 299 310 159 192 262 251 231 254 277
61 56 55 50 53 63 75 118 135 152 157 153 175 223 31 185 193 185 161 115 98 98 104 90 352 47 30 331 349 57 322 201 225 240 218 113 143 151 156 203 207 170 173 204 226 224 238 247 167 168 253 252 137 259 278 254 238 225 199 247 228 169 194 228 217 206 229 245 240 276 296 157 134 132 138 176 214 267 324 326 297 276 267 266 260 257 255
60 57 58 57 59 67 78 92 109 145 161 173 212 108 76 86 148 164 162 144 124 114 127 122 81 69 57 26 20 11 0 37 36 295 38 82 161 193 235 41 159 174 183 200 219 219 229 254 102 184 257 290 140 230 284 281 262 242 105 266 237 179 206 259 248 182 201 248 230 246 325 149 157 165 200 216 219 242 313 309 294 285 254 246 260 260 243
60 59 61 62 67 72 75 82 90 124 160 184 210 123 101 101 106 119 128 105 85 80 105 113 95 82 77 63 45 22 17 46 32 354 13 93 170 221 325 45 152 175 252 216 249 288 197 191 206 254 253 234 213 232 262 275 274 329 126 223 227 196 198 280 298 217 221 261 259 269 349 153 178 204 240 246 243 250 263 270 276 279 263 234 242 257 245
63 64 66 66 71 74 74 77 79 82 111 158 237 181 138 124 114 111 109 97 84 81 97 108 100 89 74 47 29 29 48 81 68 27 8 348 184 198 254 317 98 30 339 275 295 318 201 188 271 298 272 246 236 243 235 235 248 250 209 226 232 207 169 109 280 251 269 273 261 257 266 252 221 222 236 247 256 255 233 238 254 259 249 230 230 246 242
67 68 70 71 74 76 75 76 77 77 82 86 111 144 137 129 121 111 103 100 100 100 103 113 110 76 53 23 20 18 10 45 101 105 45 355 260 195 168 61 30 264 161 96 333 343 344 252 355 305 267 229 198 257 256 244 236 233 240 243 236 194 160 194 240 248 282 274 248 236 253 259 250 241 237 234 240 237 220 225 240 243 238 230 221 223 223
69 69 71 73 75 77 78 78 77 77 80 85 96 117 123 122 122 118 104 102 130 132 112 117 97 22 0 352 10 353 330 330 173 208 203 219 297 275 73 61 16 288 69 62 241 219 233 245 228 246 248 215 194 244 256 262 253 196 248 259 248 160 153 216 241 232 235 258 270 274 273 269 262 255 247 235 230 224 213 218 231 231 226 221 209 205 209
74 73 73 71 70 72 73 74 75 76 80 87 93 101 107 103 93 94 102 103 105 106 106 109 88 25 7 45 15 348 349 15 54 193 258 236 203 198 188 96 112 142 112 77 257 238 251 256 239 242 240 221 260 257 261 294 304 279 256 255 153 105 169 226 244 248 253 264 271 274 275 272 260 245 240 239 239 226 213 213 217 216 216 213 205 203 208
78 75 69 62 58 62 66 68 72 74 77 89 94 89 86 76 61 71 107 110 79 60 104 113 105 106 138 120 2 349 3 21 88 170 247 262 180 172 206 221 206 168 160 172 198 221 233 229 231 243 237 205 310 266 270 307 312 279 260 242 142 146 225 227 224 261 264 259 254 256 275 283 278 258 233 228 225 219 214 211 210 212 212 209 208 210 211
72 59 43 31 26 36 49 61 72 78 84 93 92 81 71 61 52 55 72 94 116 90 84 100 122 136 150 152 345 343 349 4 10 169 225 264 161 182 220 234 234 200 189 208 218 208 221 226 224 219 191 60 270 227 206 348 278 256 253 222 179 199 224 204 194 235 256 262 259 238 257 279 295 334 206 210 199 205 217 216 212 214 213 207 210 215 212
63 46 30 17 5 351 322 284 115 102 105 103 83 61 60 55 49 54 66 87 110 109 96 104 127 123 122 81 7 346 338 356 32 84 179 198 179 205 227 244 257 244 225 268 273 251 236 237 240 84 89 335 270 251 234 229 242 252 242 196 185 208 219 210 219 241 260 273 282 289 274 281 297 12 225 217 194 205 224 227 220 217 213 209 210 215 217
68 58 50 43 35 27 4 267 231 212 186 169 328 337 43 46 37 49 71 91 108 109 102 119 135 113 79 98 94 0 345 357 26 56 173 236 214 206 228 246 259 252 248 262 267 275 283 268 238 225 13 307 280 280 270 247 259 270 255 209 197 213 221 221 231 244 256 269 286 45 284 281 288 313 275 242 212 212 228 233 228 221 213 208 207 211 217
68 62 55 49 47 46 47 57 96 180 199 212 262 300 106 53 27 40 64 90 106 105 95 89 97 118 147 150 147 88 354 325 274 252 244 239 223 184 211 229 223 219 238 256 264 277 292 272 224 171 137 222 255 267 265 257 272 275 263 235 204 208 221 228 234 239 252 270 299 325 285 274 264 260 263 238 212 213 224 229 227 219 209 206 207 211 213
69 64 57 51 50 51 54 59 69 89 116 125 106 81 82 82 25 22 28 64 113 116 100 87 103 176 198 138 144 184 304 280 244 237 217 200 190 180 193 209 218 210 232 276 277 240 253 284 263 211 151 165 218 266 268 242 242 256 264 266 244 214 220 232 241 244 250 259 277 295 285 272 240 234 256 240 199 205 220 228 224 211 201 203 209 213 212
81 72 63 56 52 52 58 66 72 81 89 89 85 79 73 62 24 350 352 67 98 80 57 79 111 134 88 131 145 150 326 260 219 230 202 166 169 220 194 190 213 212 197 209 247 253 237 255 245 208 133 144 242 278 267 240 237 248 264 281 285 274 256 244 248 255 255 240 208 233 262 267 249 221 253 249 208 205 215 218 209 196 190 200 210 210 205
101 75 58 51 42 39 52 66 73 79 83 80 75 71 64 54 44 34 28 78 90 66 62 69 118 132 128 177 164 98 8 299 239 262 219 131 110 291 231 180 198 212 193 202 254 268 215 216 247 227 151 139 208 269 263 254 251 253 263 274 276 279 286 279 262 255 254 243 217 225 248 266 286 276 251 238 216 205 205 203 196 188 193 208 214 208 199
137 76 44 21 3 3 20 42 55 69 74 73 70 60 49 46 45 42 41 41 21 31 56 32 354 73 89 273 219 109 19 293 271 331 324 124 127 285 283 244 229 221 172 159 279 252 208 190 284 234 169 144 197 230 244 258 265 269 272 271 271 274 281 278 275 271 261 244 236 244 254 262 266 262 254 241 218 200 196 200 198 195 206 221 217 205 201
239 244 342 341 339 343 1 21 29 46 63 66 56 27 11 19 31 33 38 43 43 49 93 88 1 35 341 307 324 80 335 270 205 175 248 238 147 149 293 262 244 189 83 177 248 239 173 83 271 236 180 190 227 229 229 251 276 287 288 285 286 287 277 274 279 287 287 267 255 257 259 254 252 255 257 250 229 199 195 208 206 201 215 227 216 202 202
17 330 297 308 327 343 11 26 33 50 63 53 22 0 5 2 349 9 33 40 42 47 60 172 110 70 1 298 348 55 323 284 189 171 218 248 274 133 206 250 274 27 178 230 229 193 113 134 244 244 224 221 238 249 251 260 274 282 284 287 293 296 290 288 290 292 292 285 274 262 249 242 241 243 246 246 235 206 200 211 207 201 212 221 213 201 199
25 2 331 315 336 50 14 4 11 22 14 355 332 336 3 358 349 43 38 6 17 35 36 12 90 107 225 255 3 45 352 310 302 271 203 233 321 43 192 225 316 334 270 250 162 107 205 209 216 250 253 251 260 268 266 260 263 268 271 280 291 295 294 299 301 295 289 287 282 278 278 274 265 252 240 235 228 215 213 218 213 205 208 214 211 206 199
2 351 348 355 49 96 339 335 331 317 330 336 327 328 6 359 341 30 7 329 346 30 7 354 104 140 244 253 110 57 28 323 266 259 132 110 317 320 271 235 58 342 281 261 139 139 247 230 203 250 269 264 255 251 243 233 250 273 275 276 282 283 286 297 298 286 276 275 277 284 291 293 290 287 281 268 247 231 223 219 214 210 209 214 214 209 202
0 5 0 0 48 102 24 340 331 311 314 338 346 337 4 13 11 352 328 316 128 66 352 4 93 105 313 301 275 58 48 17 295 296 330 20 37 5 309 293 61 309 271 258 116 102 270 257 222 250 265 255 242 248 40 17 320 313 317 318 311 304 297 290 287 283 277 274 278 286 289 289 289 290 290 288 283 271 253 230 217 216 218 222 221 216 215
8 23 34 58 116 118 42 7 7 4 316 342 21 25 14 12 34 19 308 275 249 149 77 89 204 198 179 260 268 285 56 49 21 327 294 294 45 335 270 275 49 273 260 254 76 39 270 268 257 251 253 257 298 357 356 341 329 327 329 329 326 321 312 294 287 290 288 280 279 289 293 293 292 292 290 289 288 282 276 273 260 242 232 229 226 224 223
21 13 27 94 106 19 354 9 21 27 19 354 20 17 332 311 286 250 238 246 312 347 126 145 288 312 102 105 306 332 35 39 20 291 273 310 12 334 298 332 6 261 257 310 56 335 266 263 254 248 252 309 348 344 336 331 330 328 326 325 326 323 317 300 287 293 296 294 289 292 297 298 296 294 292 290 288 284 282 278 271 262 252 241 234 230 226
311 313 315 283 1 0 353 357 28 49 47 41 40 357 304 316 30 299 275 272 63 299 149 94 45 348 82 84 58 51 55 38 4 320 312 334 348 332 318 312 259 253 297 16 335 246 237 241 250 262 319 349 339 332 331 331 329 325 323 323 323 320 317 313 305 302 304 303 298 294 295 295 293 292 292 290 285 283 281 277 273 270 265 255 243 234 227
300 313 12 80 1 3 351 312 22 70 50 345 71 225 295 315 12 209 285 347 96 165 45 58 54 266 310 45 45 68 90 76 22 279 293 340 331 278 262 267 265 298 316 262 244 246 254 253 252 265 305 323 324 328 332 331 327 325 322 318 317 318 319 319 317 314 312 310 307 304 302 299 296 296 295 290 285 281 280 280 279 275 266 256 246 237 228
303 347 29 14 331 340 356 303 316 34 149 230 168 171 236 300 313 271 320 358 28 45 42 63 134 252 329 45 73 45 52 53 244 241 303 309 267 231 233 277 313 312 280 270 264 262 263 262 267 297 321 327 330 332 331 327 323 322 321 318 317 319 321 321 320 318 315 313 313 312 309 305 302 300 299 296 292 287 281 280 280 276 265 254 246 239 230
61 57 51 31 298 304 340 329 330 347 62 225 286 203 259 313 336 352 351 353 5 67 63 76 165 235 294 73 106 80 35 316 244 187 78 288 262 241 43 334 300 267 260 263 255 246 256 291 329 335 332 330 330 328 325 323 321 320 321 321 322 322 321 319 318 316 313 313 313 312 310 308 306 303 301 300 299 295 288 281 279 275 264 253 248 243 233
62 53 64 89 290 310 17 127 302 325 348 293 331 4 0 328 320 305 291 332 1 100 100 78 28 225 67 66 98 115 71 1 289 235 167 242 268 290 41 293 252 237 231 247 260 275 301 323 332 333 329 327 324 321 320 320 319 320 322 322 320 319 319 318 317 316 314 314 314 311 309 308 307 306 304 302 300 298 295 289 283 275 264 255 254 251 239
141 51 48 193 245 288 37 34 279 279 179 133 349 7 1 290 285 239 127 2 332 112 122 112 306 173 102 82 317 299 51 19 282 241 119 305 294 310 352 289 269 253 225 234 271 310 326 326 325 325 323 320 318 317 318 319 319 321 323 322 319 318 317 315 314 313 313 312 311 308 306 307 306 305 303 301 298 297 297 295 288 279 267 257 254 252 242
103 109 90 112 208 203 110 344 287 291 122 125 102 337 230 265 307 42 111 132 278 34 61 1 308 295 348 32 15 274 195 206 225 45 34 262 250 251 289 280 275 269 236 227 273 310 321 321 318 316 314 314 314 315 316 318 319 321 320 317 315 314 314 312 312 312 311 311 308 305 305 306 305 303 302 299 297 298 300 299 293 283 273 262 253 248 243
59 81 96 12 305 233 156 253 305 315 328 70 63 88 195 283 325 114 143 151 134 122 169 225 259 197 75 1 316 259 221 179 138 132 259 242 225 218 251 250 258 293 319 322 318 316 316 316 313 310 309 311 312 313 316 317 318 318 315 313 312 312 312 311 311 311 310 310 309 307 305 306 305 303 303 302 300 300 301 299 292 284 277 269 259 249 244
34 62 73 17 351 0 10 342 313 309 315 332 350 19 163 316 357 117 150 160 172 196 200 195 83 94 100 312 303 298 337 134 165 229 260 249 196 175 224 251 283 313 321 320 317 313 311 310 307 307 310 312 313 313 314 313 312 311 311 311 312 313 313 312 313 312 310 310 310 309 307 306 305 304 304 302 301 300 299 296 294 290 284 275 264 254 247
45 36 63 73 47 10 334 299 274 281 294 313 337 1 10 5 26 127 165 180 210 248 212 112 103 130 290 326 343 278 274 239 248 268 270 233 188 195 234 276 306 318 318 314 310 307 305 304 303 305 310 313 312 312 313 312 312 313 313 313 314 315 314 314 314 312 311 311 311 310 309 309 308 307 306 303 300 298 295 295 299 300 294 283 273 264 256